Date String (YYYY-MM-DD hh:mm:ss) UTC,Instrument flags,Ambient pressure (hPa),Sample flow (lpm),Bypass flow (lpm),Sample temperature (°C),Ambient temperature (°C),ASC tube jacket temperature (°C),LED temperature (°C),Box temperature (°C),Sample RH (%),Span deviation,Mass concentration (μg/m³),Mass concentration (μg/m³),Mass concentration (μg/m³)
DateTimeUTC,F1_M11,P_M11,Q1_M11,Q2_M11,T1_M11,T2_M11,T3_M11,T4_M11,T5_M11,U1_M11,ZSPAN_M11,X0_M11,X2_M11,X1_M11
2022-12-01 19:00:00,,0817.0,5.01,0.00,25.4,24.4,00.0,34.2,27.3,12.3,0000.0,0011.51,0006.26,0005.69
2022-12-01 19:01:00,,0817.2,5.01,0.00,25.5,24.4,00.0,34.2,27.4,12.4,0000.0,0011.46,0006.21,0005.68
2022-12-01 19:02:00,,0816.9,4.99,0.00,25.5,24.5,00.0,34.2,27.4,12.2,0000.0,0011.46,0006.17,0005.65
2022-12-01 19:03:00,,0816.5,5.00,0.00,25.5,24.5,00.0,34.2,27.4,12.4,0000.0,0012.13,0006.16,0005.63
2022-12-01 19:04:00,,0816.6,5.00,0.00,25.5,24.5,00.0,34.3,27.4,12.7,0000.0,0012.13,0006.16,0005.62
2022-12-01 19:05:00,,0816.3,4.99,0.00,25.5,24.5,00.0,34.3,27.4,12.3,0000.0,0012.13,0006.19,0005.66
2022-12-01 19:06:00,,0816.3,5.00,0.00,25.5,24.5,00.0,34.3,27.4,12.3,0000.0,0011.40,0006.23,0005.73
2022-12-01 19:07:00,,0816.3,5.00,0.00,25.6,24.5,00.0,34.3,27.5,12.3,0000.0,0011.40,0006.37,0005.84
2022-12-01 19:08:00,,0816.4,5.00,0.00,25.6,24.6,00.0,34.3,27.5,12.3,0000.0,0011.23,0006.56,0006.02
2022-12-01 19:09:00,,0816.4,5.01,0.00,25.6,24.6,00.0,34.3,27.5,12.0,0000.0,0011.98,0006.76,0006.19
2022-12-01 19:10:00,,0816.4,5.00,0.00,25.6,24.6,00.0,34.3,27.5,12.1,0000.0,0012.45,0007.04,0006.47
2022-12-01 19:11:00,,0816.4,4.99,0.00,25.6,24.6,00.0,34.4,27.5,12.3,0000.0,0012.62,0007.24,0006.63
2022-12-01 19:12:00,,0816.4,4.99,0.00,25.6,24.6,00.0,34.4,27.5,12.3,0000.0,0012.77,0007.33,0006.70
2022-12-01 19:13:00,,0816.3,5.00,0.00,25.7,24.6,00.0,34.4,27.5,12.5,0000.0,0012.81,0007.38,0006.73
2022-12-01 19:14:00,,0816.2,5.00,0.00,25.7,24.7,00.0,34.4,27.6,11.8,0000.0,0012.10,0007.35,0006.73
2022-12-01 19:15:00,,0816.1,5.00,0.00,25.7,24.7,00.0,34.4,27.6,11.9,0000.0,0012.10,0007.34,0006.72
2022-12-01 19:16:00,,0816.1,5.00,0.00,25.7,24.7,00.0,34.5,27.6,11.9,0000.0,0012.04,0007.29,0006.68
2022-12-01 19:17:00,,0816.0,5.00,0.00,25.7,24.7,00.0,34.5,27.6,12.0,0000.0,0011.97,0007.24,0006.64
2022-12-01 19:18:00,,0816.0,5.00,0.00,25.8,24.8,00.0,34.5,27.6,12.0,0000.0,0011.89,0007.16,0006.57
2022-12-01 19:19:00,,0816.0,5.00,0.00,25.8,24.8,00.0,34.5,27.6,12.0,0000.0,0011.54,0007.01,0006.44
2022-12-01 19:20:00,,0815.9,5.01,0.00,25.8,24.8,00.0,34.5,27.7,12.1,0000.0,0010.89,0006.87,0006.31
2022-12-01 19:21:00,,0815.9,5.00,0.00,25.8,24.8,00.0,34.6,27.7,11.9,0000.5,0010.29,0006.66,0006.07
2022-12-01 19:22:00,,0815.9,5.00,0.00,25.8,24.8,00.0,34.6,27.7,11.9,0000.0,0009.97,0006.47,0005.89
2022-12-01 19:23:00,,0815.8,5.01,0.00,25.9,24.9,00.0,34.6,27.7,11.9,0000.0,0010.02,0006.37,0005.81
2022-12-01 19:24:00,,0815.9,5.00,0.00,25.9,24.9,00.0,34.6,27.7,11.8,0000.0,0010.47,0006.31,0005.73
2022-12-01 19:25:00,,0815.9,4.99,0.00,25.9,24.9,00.0,34.6,27.8,11.6,0000.0,0010.47,0006.26,0005.63
2022-12-01 19:26:00,,0815.9,5.00,0.00,25.9,24.9,00.0,34.7,27.8,10.1,0000.0,0010.32,0006.05,0005.45
2022-12-01 19:27:00,,0815.9,5.00,0.00,25.9,24.9,00.0,34.7,27.8,10.1,0000.0,0010.27,0005.83,0005.23
2022-12-01 19:28:00,,0815.8,5.00,0.00,26.0,24.9,00.0,34.7,27.8,11.4,0000.0,0010.12,0005.65,0005.05
2022-12-01 19:29:00,,0815.7,5.02,0.00,26.0,24.9,00.0,34.7,27.8,12.0,0000.0,0010.00,0005.52,0004.91
2022-12-01 19:30:00,,0815.7,5.01,0.00,26.0,25.0,00.0,34.7,27.9,12.1,0000.0,0009.89,0005.39,0004.76
2022-12-01 19:31:00,,0815.7,5.00,0.00,26.0,25.0,00.0,34.7,27.9,11.5,0000.0,0009.85,0005.23,0004.61
2022-12-01 19:32:00,,0815.7,4.98,0.00,26.0,25.0,00.0,34.8,27.9,09.2,0000.0,0009.72,0005.02,0004.40
2022-12-01 19:33:00,,0815.8,4.99,0.00,26.0,25.0,00.0,34.8,27.9,08.7,0000.0,0009.29,0004.68,0004.11
2022-12-01 19:34:00,,0815.8,5.00,0.00,26.1,25.1,00.0,34.8,28.0,08.6,0000.0,0008.81,0004.37,0003.83
2022-12-01 19:35:00,,0815.8,5.01,0.00,26.1,25.1,00.0,34.8,28.0,08.0,0000.0,0007.90,0004.03,0003.54
2022-12-01 19:36:00,,0815.8,5.00,0.00,26.1,25.1,00.0,34.8,28.0,08.3,0000.0,0007.42,0003.76,0003.30
2022-12-01 19:37:00,,0815.8,5.01,0.00,26.1,25.2,00.0,34.9,28.0,08.6,0000.0,0007.07,0003.58,0003.15
2022-12-01 19:38:00,,0815.9,4.98,0.00,26.2,25.2,00.0,34.9,28.1,08.2,0000.0,0006.67,0003.53,0003.07
2022-12-01 19:39:00,,0815.9,5.00,0.00,26.2,25.2,00.0,34.9,28.1,08.2,0000.0,0006.24,0003.43,0002.91
2022-12-01 19:40:00,,0815.9,5.01,0.00,26.2,25.2,00.0,34.9,28.1,10.7,0000.0,0005.92,0003.32,0002.73
2022-12-01 19:41:00,,0815.8,5.00,0.00,26.2,25.3,00.0,34.9,28.1,10.0,0000.0,0005.85,0003.20,0002.53
2022-12-01 19:42:00,,0815.7,4.99,0.00,26.2,25.3,00.0,35.0,28.1,11.7,0000.0,0005.99,0003.19,0002.52
2022-12-01 19:43:00,,0816.2,5.02,0.00,26.3,25.3,00.0,35.0,28.2,11.9,0000.0,0006.20,0003.34,0002.79
2022-12-01 19:44:00,,0815.7,5.00,0.00,26.3,25.3,00.0,35.0,28.2,11.2,0000.0,0006.64,0003.54,0003.12
2022-12-01 19:45:00,,0815.6,4.98,0.00,26.3,25.4,00.0,35.0,28.2,09.9,0000.0,0006.83,0003.64,0003.22
2022-12-01 19:46:00,,0815.8,5.01,0.00,26.3,25.4,00.0,35.0,28.2,11.0,0000.0,0007.19,0003.80,0003.36
2022-12-01 19:47:00,,0815.7,4.99,0.00,26.4,25.4,00.0,35.1,28.3,10.4,0000.0,0008.16,0003.95,0003.49
2022-12-01 19:48:00,,0815.6,5.00,0.00,26.4,25.4,00.0,35.1,28.3,08.3,0000.0,0008.29,0004.01,0003.51
2022-12-01 19:49:00,,0816.0,5.01,0.00,26.4,25.5,00.0,35.1,28.3,09.1,0000.0,0008.20,0004.00,0003.51
2022-12-01 19:50:00,,0815.7,4.98,0.00,26.4,25.5,00.0,35.1,28.3,12.0,0000.0,0008.34,0004.13,0003.65
2022-12-01 19:51:00,,0815.7,5.01,0.00,26.5,25.5,00.0,35.2,28.3,12.8,0000.0,0008.40,0004.24,0003.79
2022-12-01 19:52:00,,0816.0,5.00,0.00,26.5,25.5,00.0,35.2,28.4,12.3,0000.0,0008.43,0004.36,0003.91
2022-12-01 19:53:00,,0816.0,4.99,0.00,26.5,25.5,00.0,35.2,28.4,11.6,0000.0,0008.41,0004.40,0003.95
2022-12-01 19:54:00,,0815.8,5.01,0.00,26.5,25.5,00.0,35.2,28.4,10.5,0000.0,0008.15,0004.23,0003.81
2022-12-01 19:55:00,,0815.5,4.99,0.00,26.5,25.6,00.0,35.2,28.4,11.1,0000.0,0008.05,0004.13,0003.74
2022-12-01 19:56:00,,0815.4,5.00,0.00,26.6,25.6,00.0,35.3,28.4,11.6,0000.0,0008.40,0004.14,0003.74
2022-12-01 19:57:00,,0815.4,5.00,0.00,26.6,25.6,00.0,35.3,28.5,11.3,0000.0,0008.54,0004.21,0003.79
2022-12-01 19:58:00,,0815.4,4.99,0.00,26.6,25.6,00.0,35.3,28.5,11.1,0000.0,0008.02,0004.21,0003.80
2022-12-01 19:59:00,,0815.3,5.01,0.00,26.6,25.6,00.0,35.3,28.5,10.5,0000.0,0007.74,0004.22,0003.85
